Das Wetter in  D-61279 Heinzenberg / Taunus





Wetter Minimum- & Maximum-Werte im Mai 2009

Standort: Heinzenberg / Taunus - Höhe 297 m         8 24' 1" Ost 50 21' 51" Nord
(   3-stündige Aktualisierung    letzte Aktualisierung um 19:04 am 31.05.2009  )


Messgrösse

Minimum

Maximum

Durchschnitt

Temperatur West /
Luftfeuchte West
Anklicken für Monats-Diagramm

4,5 C

07:33
04.05.2009

42 %

16:48
19.05.2009

29,4 C

16:48
25.05.2009

95 %

07:20
01.05.2009

Temp

13,8 C

Feuchte

75 %

Temperatur Ost /
Luftfeuchte Ost
Anklicken für Monats-Diagramm

4,3 C

06:21
30.05.2009

--

--
--

29,5 C

15:38
25.05.2009

--

--
--

13,6 C

--

Luftdruck Anklicken für Monats-Diagramm

1006,3 hPa

06:09
15.05.2009

1032,9 hPa

07:40
29.05.2009

1019,2 hPa

Taupunkt

0,2 C

22:54
04.05.2009

19,3 C

16:43
25.05.2009

9,2 C

Windchill
( gefühlte Temperatur )

-1,1 C

08:43
04.05.2009

29,3 C

16:38
25.05.2009

12,0 C

Windgeschwindigkeit /
Windrichtung
Anklicken für Monats-Diagramm

---

51,5 km/h / W

17:07
08.05.2009

8,5 km/h
W

Helligkeit /
Sonnenschein
Anklicken für Monats-Diagramm
Anklicken für Monats-Diagramm

Sonnenschein:

201:13 Stunden

Max: 13:45 Std am
24.05.2009

125 klux

13:15
28.05.2009

37 klux

Solarstrahlung Anklicken für Monats-Diagramm

---

855 W/m

13:15
28.05.2009

276 W/m

Regenmenge
    Mai 2009
Anklicken für Monats-Diagramm

Insgesamt 90,3 l/m

in 58:39 Stunden
an 19 Tagen

23,7 l/m

08:50
11.05.2009

Gesamtmenge

90,3 l/m

Regen-Tage
    Mai 2009
Anklicken für Monats-Diagramm

>   0 mm/Tag

>   2 mm/Tag

>   5 mm/Tag

> 10 mm/Tag

> 20 mm/Tag

19 Tage     
8 Tage     
5 Tage     
5 Tage     
  1 Tag     

Eisige Tage Mai 2009 / 2008

Tmin ≤ -10C     

0 Tage

/

0 Tage

Eistage Mai 2009 / 2008

Tmax <     0C     

0 Tage

/

0 Tage

Frosttage Mai 2009 / 2008

Tmin ≤     0C     

0 Tage

/

0 Tage

Kalte Tage Mai 2009 / 2008

Tmax <   10C     

0 Tage

/

0 Tage

Warme Tage Mai 2009 / 2008

Tmax ≥   20C     

17 Tage

/

22 Tage

Sommertage Mai 2009 / 2008

Tmax ≥   25C     

2 Tage

/

8 Tage

Heisse Tage Mai 2009 / 2008

Tmax ≥   30C     

0 Tage

/

0 Tage


Monatsdiagramm Mai 2009

Die Kurven zeigen den Durchschnittswert des jeweiligen Tages an


Wetter-Monatsübersicht Mai 2009
Datum
  Temperatur
   Luftdruck
   Wind
  Regen
   Luftfeuchte
   Helligkeit

Sonnen-
schein


Temp.

Min.
Temp.

Max.
Temp.


Luftdruck

Min.
Luftdruck

Max.
Luftdruck

-Geschw.
Haupt-Richtg.

Max.
Wind

Menge /
Dauer


Feuchte

Min.
Feuchte

Max.
Feuchte


Helligkeit

Max.
Helligkeit

1.
Mai
14,8 C10,1 C
02:20
21,4 C
17:00
1021,9 hPa1020,7 hPa
17:00
1025,1 hPa
23:56
3,7 km/h
W-NW
17,1 km/h
18:25  
---
15 Minuten
81 %57 %
16:50
95 %
07:20
44,6 klux90,5 klux
14:00
8:55 Std 
2.
Mai
14,7 C9,4 C
02:11
20,7 C
17:56
1026,3 hPa1024,9 hPa
17:56
1028,1 hPa
09:16
5,5 km/h
W-NW
23,8 km/h
16:21  
---
76 %53 %
18:06
91 %
07:36
46,4 klux100,0 klux
13:16
9:45 Std 
3.
Mai
13,7 C8,9 C
23:58
19,2 C
08:17
1023,8 hPa1020,4 hPa
15:47
1027,2 hPa
00:57
7,8 km/h
W-NW
37,0 km/h
15:32  
2,0 l/m
1:15 Stunden
75 %51 %
12:32
91 %
08:42
32 klux100 klux
13:47
5:51 Std 
4.
Mai
8,8 C4,5 C
07:33
14,6 C
16:03
1025,5 hPa1023,8 hPa
19:08
1026,9 hPa
07:33
8,6 km/h
NW
26,3 km/h
15:58  
---
64 %48 %
16:08
79 %
08:08
41 klux124 klux
14:28
6:30 Std 
5.
Mai
8,4 C4,8 C
02:54
10,8 C
14:19
1022,2 hPa1019,9 hPa
23:30
1025,8 hPa
00:24
13,7 km/h
W
34,7 km/h
10:24  
3,3 l/m
7:26 Stunden
77 %64 %
09:39
90 %
22:35
15 klux51 klux
14:14
--- 
6.
Mai
11,2 C10,0 C
07:05
12,8 C
14:50
1018,2 hPa1016,8 hPa
03:25
1019,9 hPa
00:00
17,4 km/h
W
34,0 km/h
10:55  
0,6 l/m
1:45 Stunden
80 %69 %
14:10
90 %
00:00
15,7 klux39,4 klux
10:00
15 Min 
7.
Mai
14,1 C7,2 C
04:46
21,4 C
17:31
1017,6 hPa1014,6 hPa
19:31
1019,8 hPa
08:46
9,0 km/h
W
31,3 km/h
10:16  
---
69 %50 %
18:06
86 %
07:01
53,1 klux118,0 klux
12:36
12:25 Std 
8.
Mai
14,1 C8,7 C
04:37
20,4 C
14:02
1014,3 hPa1011,5 hPa
14:17
1020,9 hPa
23:58
13,7 km/h
W
51,5 km/h
17:07  
4,1 l/m
4:05 Stunden
74 %54 %
17:07
89 %
09:47
35 klux122 klux
13:57
5:30 Std 
9.
Mai
11,9 C4,7 C
06:08
18,0 C
17:08
1018,9 hPa1013,9 hPa
19:38
1022,7 hPa
06:08
4,8 km/h
O-SO
30,8 km/h
22:29  
10,0 l/m
2:21 Stunden
73 %58 %
12:38
86 %
08:13
31 klux87 klux
10:58
2:30 Std 
10.
Mai
14,7 C10,7 C
07:24
21,2 C
17:34
1018,5 hPa1015,6 hPa
00:04
1020,8 hPa
09:19
3,9 km/h
O
22,6 km/h
22:55  
2,7 l/m
1:30 Stunden
76 %54 %
16:54
92 %
09:09
46,1 klux106,0 klux
14:44
7:50 Std 
11.
Mai
11,7 C10,6 C
22:55
12,8 C
00:00
1017,3 hPa1016,6 hPa
11:20
1018,9 hPa
22:55
3,3 km/h
NO
17,5 km/h
16:40  
23,7 l/m
14:10 Stunden
90 %81 %
00:00
93 %
15:55
6 klux18 klux
09:25
--- 
12.
Mai
10,4 C8,6 C
06:01
11,7 C
10:56
1020,1 hPa1018,9 hPa
00:01
1021,0 hPa
15:06
6,2 km/h
NO
24,4 km/h
09:06  
10,0 l/m
5:10 Stunden
92 %88 %
11:01
93 %
00:01
14,3 klux44,2 klux
10:01
30 Min 
13.
Mai
12,5 C8,5 C
05:52
17,2 C
14:47
1017,3 hPa1014,1 hPa
19:12
1020,1 hPa
01:07
4,3 km/h
O-SO
21,0 km/h
13:07  
0,2 l/m
35 Minuten
87 %74 %
18:12
94 %
04:07
29,7 klux109,0 klux
12:32
2:40 Std 
14.
Mai
13,3 C10,1 C
04:28
17,9 C
16:28
1009,9 hPa1006,8 hPa
19:13
1014,5 hPa
00:53
9,6 km/h
O-SO
28,1 km/h
21:38  
1,5 l/m
2:45 Stunden
82 %69 %
16:43
90 %
04:23
24 klux96 klux
16:03
1:05 Std 
15.
Mai
13,2 C10,7 C
23:15
16,8 C
13:34
1007,7 hPa1006,3 hPa
06:09
1010,6 hPa
23:15
9,3 km/h
O-SO
25,8 km/h
03:14  
11,6 l/m
8:46 Stunden
89 %80 %
14:14
93 %
23:55
18,1 klux97,8 klux
12:44
55 Min 
16.
Mai
11,3 C7,6 C
06:20
15,2 C
16:04
1014,7 hPa1010,6 hPa
00:40
1017,9 hPa
23:16
11,5 km/h
W-SW
31,0 km/h
12:20  
0,2 l/m
10 Minuten
80 %65 %
17:45
93 %
00:00
31,5 klux118,0 klux
11:25
5:00 Std 
17.
Mai
14,2 C6,4 C
06:26
22,8 C
14:51
1014,0 hPa1011,2 hPa
14:51
1017,2 hPa
02:36
10,4 km/h
SO
40,7 km/h
14:51  
1,1 l/m
1:51 Stunden
76 %55 %
14:56
90 %
07:11
41 klux116 klux
14:41
6:10 Std 
18.
Mai
14,2 C9,1 C
06:32
19,4 C
18:17
1019,4 hPa1016,5 hPa
00:02
1023,2 hPa
23:53
11,5 km/h
W-SW
36,3 km/h
13:17  
---
69 %45 %
18:27
88 %
07:32
45 klux121 klux
12:32
9:01 Std 
19.
Mai
13,9 C5,5 C
05:53
22,8 C
15:58
1021,8 hPa1018,7 hPa
18:03
1023,7 hPa
05:53
5,5 km/h
W-SW
29,7 km/h
12:08  
0,3 l/m
1:15 Stunden
67 %42 %
16:48
86 %
08:08
53 klux117 klux
13:43
9:55 Std 
20.
Mai
15,4 C9,0 C
05:43
24,3 C
17:03
1020,5 hPa1017,1 hPa
20:33
1023,2 hPa
06:38
2,3 km/h
NW
32,6 km/h
18:13  
1,1 l/m
45 Minuten
77 %55 %
17:18
89 %
08:38
45 klux106 klux
12:28
8:55 Std 
21.
Mai
16,2 C10,9 C
06:14
22,4 C
15:44
1013,6 hPa1010,5 hPa
19:19
1017,6 hPa
01:19
5,8 km/h
W
29,3 km/h
16:29  
17,0 l/m
1:30 Stunden
81 %60 %
16:29
91 %
08:19
36 klux101 klux
13:24
4:25 Std 
22.
Mai
15,3 C10,6 C
23:50
20,6 C
15:15
1015,3 hPa1013,3 hPa
00:00
1019,9 hPa
23:50
9,1 km/h
W-NW
35,2 km/h
15:35  
---
73 %45 %
18:35
92 %
07:10
53 klux114 klux
12:20
11:45 Std 
23.
Mai
14,2 C5,7 C
06:10
22,4 C
16:35
1020,0 hPa1015,8 hPa
20:45
1022,6 hPa
06:10
4,1 km/h
O-SO
23,9 km/h
16:05  
---
65 %46 %
16:45
85 %
07:40
54 klux104 klux
13:35
12:30 Std 
24.
Mai
18,6 C10,2 C
06:02
26,8 C
16:47
1018,0 hPa1017,0 hPa
16:47
1019,1 hPa
23:58
5,7 km/h
NW
20,3 km/h
14:07  
---
68 %49 %
17:22
84 %
07:52
54 klux105 klux
13:37
13:45 Std 
25.
Mai
20,5 C12,4 C
06:03
29,4 C
16:48
1016,7 hPa1011,5 hPa
23:39
1020,5 hPa
03:18
5,4 km/h
SO
27,1 km/h
20:58  
---
70 %51 %
15:48
86 %
08:03
49 klux104 klux
12:13
9:56 Std 
26.
Mai
18,3 C11,2 C
23:59
23,6 C
13:29
1012,4 hPa1009,8 hPa
04:09
1019,8 hPa
23:59
15,5 km/h
W
44,7 km/h
16:34  
0,6 l/m
2:20 Stunden
74 %54 %
16:29
88 %
07:24
31 klux113 klux
13:24
2:55 Std 
27.
Mai
12,2 C7,6 C
06:14
17,4 C
14:59
1025,0 hPa1019,8 hPa
00:04
1027,1 hPa
09:19
16,5 km/h
W
36,4 km/h
11:44  
---
67 %44 %
15:39
85 %
04:14
48 klux121 klux
12:59
9:30 Std 
28.
Mai
13,6 C10,8 C
03:15
16,9 C
19:30
1026,8 hPa1025,0 hPa
07:35
1031,0 hPa
23:55
16,5 km/h
W
31,9 km/h
09:20  
0,3 l/m
45 Minuten
75 %64 %
00:00
84 %
15:30
23 klux125 klux
13:15
2:10 Std 
29.
Mai
13,2 C5,7 C
06:45
20,8 C
16:15
1030,4 hPa1028,0 hPa
17:00
1032,9 hPa
07:40
7,4 km/h
NO
28,5 km/h
15:15  
---
65 %43 %
15:15
86 %
07:25
56 klux105 klux
14:45
13:15 Std 
30.
Mai
13,3 C4,7 C
06:31
20,5 C
14:56
1025,8 hPa1021,9 hPa
18:36
1029,7 hPa
03:11
9,2 km/h
NO
26,6 km/h
18:21  
---
66 %48 %
17:06
85 %
07:56
48 klux116 klux
13:06
9:25 Std 
31.
Mai
16,0 C11,5 C
06:07
21,1 C
16:47
1022,2 hPa1020,7 hPa
16:47
1023,3 hPa
11:17
7,4 km/h
NO
26,0 km/h
16:42  
---
68 %53 %
15:02
85 %
07:17
42 klux124 klux
13:22
7:55 Std 



Mai
2009

Temperatur

  

Luftdruck

  

Wind

  

Regen

  

Luftfeuchte

  

Helligkeit

Sonnen-
schein

Min

Max

Min

Max

Max

Max

Min

Max

Max

Max

13,8 C

4,5 C

07:33 Uhr
04.05.2009

29,4 C

16:48 Uhr
25.05.2009

1019,2 hPa

1006,3 hPa

06:09 Uhr
15.05.2009

1032,9 hPa

07:40 Uhr
29.05.2009

8,5 km/h

W

51,5 km/h

17:07 Uhr
08.05.2009

23,7 l/m

14:10 Stunden
11.05.2009

75 %

42 %

16:48 Uhr
19.05.2009

95 %

07:20 Uhr
01.05.2009

37 klux

125,0 klux

13:15 Uhr
28.05.2009

13:45 Std

am
24.05.2009

Gesamt

Gesamt

90,3 l/m

19 Tage
58:39 h

201:13 Std


Wetter-Diagramme Mai 2009     Heinzenberg / Taunus   
TemperaturLuftfeuchte
SolarstrahlungLuftdruck
HelligkeitSonnenschein
RegenmengeRegendauer
Wind-GeschwindigkeitWind-Richtung